Location: Mount Wilson Observatory
(34.2257°N, 118.0571°W)
Time: 01:19:18
(UTC-07:00)

ATLAS 3B CENTAUR R/B - Visible Passes

Search period start: 30 June 2015 00:00
Search period end: 10 July 2015 00:00
Orbit: 220 x 7595 km, 28.2° (Epoch: 29 June)

Date Brightness Start Highest point End Pass type
(mag) Time Alt. Az. Time Alt. Az. Time Alt. Az.
30 Jun 6.2 21:07:09 10° W 21:57:26 45° SW 22:19:32 19° SSE visible
01 Jul 6.3 20:00:05 10° W 20:51:12 55° SSW 21:23:05 12° SE visible
01 Jul 6.6 23:39:52 10° W 00:06:59 16° SW 00:16:01 12° SSW visible
02 Jul 6.4 22:22:05 10° W 23:03:43 27° SW 23:19:24 16° SSW visible
03 Jul 6.4 21:10:41 10° W 21:58:51 39° SW 22:22:40 16° S visible
04 Jul 6.5 20:02:55 10° W 20:52:01 49° SW 21:25:49 10° SSE visible
04 Jul 6.8 23:51:28 10° WSW 00:08:53 11° SW 00:13:51 10° SW visible
05 Jul 6.6 22:26:26 10° W 23:04:31 22° SW 23:21:40 12° SSW visible
06 Jul 6.6 21:13:02 10° W 21:58:45 33° SW 22:24:30 12° S visible
07 Jul 6.6 20:04:21 10° W 20:51:09 44° SW 21:25:39 10° SSE visible
08 Jul 6.8 22:30:53 10° W 23:04:08 17° SW 23:19:45 10° SSW visible
09 Jul 6.7 21:14:23 10° W 21:57:15 28° SW 22:23:19 10° S visible
